Wellington, UT

10:01 AM MST on February 14, 2016 (GMT -0700)
Carbon County

Weather History for KPUC - November, 2012

Change the Weather History Date:

Friday, November 9, 2012

  Actual Average Record
Temperature  
Mean Temperature 44 °F -  
Max Temperature 53 °F 46 °F - (-1)
Min Temperature 36 °F 26 °F - (-1)
Degree Days  
Heating Degree Days 20    
Moisture  
Dew Point 35 °F    
Average Humidity 63    
Maximum Humidity 82    
Minimum Humidity 34    
Precipitation  
Precipitation 0.05 in - - ()
Sea Level Pressure  
Sea Level Pressure 29.55 in    
Wind  
Wind Speed 11 mph (South)    
Max Wind Speed 25 mph    
Max Gust Speed 48 mph    
Visibility 10 miles    
Events Rain    
Averages and records for this station are not official NWS values.
T = Trace of Precipitation, MM = Missing Value Source: NWS Daily Summary

Daily Weather History Graph

Daily Weather History Graph

Search for Another Location

Airport or City:

Trip Planner

Search our weather history database for the weather conditions in past years. The results will help you decide how hot, cold, wet, or windy it might be!

Date:

Astronomy

Nov. 09, 2012 Rise Set
Actual Time 7:01 AM MST 5:12 PM MST
Civil Twilight 6:32 AM MST 5:40 PM MST
Nautical Twilight 6:00 AM MST 6:12 PM MST
Astronomical Twilight 5:28 AM MST 6:44 PM MST
Moon 2:04 AM MST (11/9) 2:26 PM MST (11/9)
Length of Visible Light 11h 08m
Length of Day
10h 11m
Waning Crescent, 22% of the Moon is Illuminated
Nov 9
Waning Crescent
Nov 13
New
Nov 20
First Quarter
Nov 28
Full
Dec 6
Last Quarter

Hourly Weather History & Observations

Time (MST) Temp. Windchill Dew Point Humidity Pressure Visibility Wind Dir Wind Speed Gust Speed Precip Events Conditions
12:53 AM 53.1 °F - 25.0 °F 34% 29.61 in 10.0 mi SSE 11.5 mph - N/A   Overcast
1:53 AM 52.0 °F - 24.1 °F 34% 29.60 in 10.0 mi SE 6.9 mph - N/A   Overcast
2:53 AM 53.1 °F - 28.0 °F 38% 29.60 in 10.0 mi South 15.0 mph - N/A   Overcast
3:53 AM 51.1 °F - 34.0 °F 52% 29.61 in 10.0 mi South 11.5 mph - N/A   Overcast
4:53 AM 50.0 °F - 36.0 °F 59% 29.60 in 10.0 mi South 6.9 mph - N/A   Overcast
5:30 AM 46.4 °F 42.4 °F 39.2 °F 76% 29.69 in 7.0 mi South 8.1 mph - 0.01 in Rain Light Rain
5:38 AM 46.4 °F 43.5 °F 39.2 °F 76% 29.70 in 10.0 mi South 5.8 mph - 0.01 in   Overcast
5:53 AM 46.9 °F - 39.9 °F 77% 29.62 in 10.0 mi SSW 3.5 mph - 0.01 in   Overcast
6:53 AM 46.9 °F - 41.0 °F 80% 29.60 in 10.0 mi South 5.8 mph - 0.00 in   Overcast
7:53 AM 46.9 °F - 41.0 °F 80% 29.60 in 10.0 mi SE 3.5 mph - N/A   Overcast
8:53 AM 48.0 °F - 41.0 °F 77% 29.60 in 10.0 mi Calm Calm - N/A   Overcast
9:53 AM 52.0 °F - 39.0 °F 61% 29.55 in 10.0 mi South 10.4 mph 18.4 mph N/A   Overcast
10:53 AM 53.1 °F - 36.0 °F 52% 29.51 in 10.0 mi South 19.6 mph - 0.01 in   Overcast
11:53 AM 52.0 °F - 37.0 °F 57% 29.50 in 10.0 mi SW 15.0 mph 26.5 mph 0.00 in   Overcast
12:53 PM 53.1 °F - 36.0 °F 52% 29.45 in 10.0 mi SSW 20.7 mph 31.1 mph 0.00 in   Overcast
1:53 PM 48.9 °F - 39.0 °F 69% 29.46 in 10.0 mi South 24.2 mph 32.2 mph 0.01 in   Overcast
2:53 PM 50.0 °F - 39.0 °F 66% 29.43 in 10.0 mi South 18.4 mph 25.3 mph N/A   Mostly Cloudy
3:53 PM 51.1 °F - 35.1 °F 54% 29.41 in 10.0 mi South 18.4 mph 25.3 mph N/A   Mostly Cloudy
4:53 PM 50.0 °F - 30.0 °F 46% 29.42 in 10.0 mi SW 16.1 mph 25.3 mph N/A   Mostly Cloudy
5:53 PM 46.9 °F - 33.1 °F 59% 29.45 in 10.0 mi South 19.6 mph 26.5 mph 0.00 in   Mostly Cloudy
6:53 PM 46.0 °F 37.4 °F 30.9 °F 56% 29.50 in 8.0 mi SSW 25.3 mph 48.3 mph 0.01 in   Overcast
7:53 PM 42.8 °F 38.6 °F 33.8 °F 70% 29.56 in 10.0 mi SSE 6.9 mph - N/A   Overcast
8:53 PM 39.9 °F 36.7 °F 32.0 °F 73% 29.55 in 10.0 mi SSW 4.6 mph - 0.01 in   Overcast
9:53 PM 37.9 °F 32.7 °F 30.9 °F 76% 29.56 in 10.0 mi SE 6.9 mph - N/A   Overcast
10:53 PM 36.0 °F - 30.9 °F 82% 29.56 in 10.0 mi Calm Calm - N/A   Overcast
11:53 PM 36.0 °F 31.1 °F 30.0 °F 79% 29.57 in 10.0 mi NE 5.8 mph - N/A   Overcast